Showing default

SHIELDS 1, 43850

Orbit data source: Space-Track

SHIELDS 1, 43850 is a payload satellite owned by NASA LaRC (US) in LEO that was launched on Sun, 16 Dec 2018 UTC via an ELECTRON launch vehicle from the Rocket Lab Launch Complex (RLLC). Payloads include a variety of satellites, spacecraft, and rockets equipped with specific instruments for various scientific and technological missions. These include communications satellites like Starlink; space stations such as the ISS; scientific satellites like the Hubble; Earth observation satellites from companies like Planet Labs, Umbra, and HawkEye 360; GPS; miniature CubeSats for education and research; and military/defense satellites.

Loading next visibility...
SHIELDS 1 details
Identifier
43850, 2018-104B
Orbit
LEO
Last TLE update10 hours ago
Origin
Flag of USNASA LaRC (US)
ManufacturerNASA LaRC
MissionOperational Civil Technology
Bus & MotorCUBESAT 3U, Unknown motor
Mass6.93 kg wet, 6.93 kg dry
Launch date (UTC)
2018-12-16 (6 years ago)
Launch vehicle
ELECTRON
Launch site
Rocket Lab Launch Complex (RLLC)
Object type
Payload
Rocket body
Debris
Shape & HBRBox + 2 Pan, 0.3 m
Radar Cross Section0.035 m², Small (<0.1 m²)

Expand to show TLE details & history

TLE from 10 hours ago
0 SHIELDS 1
1 43850U 18104B   24361.47716953  .00031585  00000-0  59092-3 0  9992
2 43850  85.0192 151.6615 0010078  63.9714 296.2579 15.48506257335800
Epoch: 2024-12-26T11:27Z
Definitive object data (Epoch: 2024-12-26T11:27:07.447Z)
Latitude-0°
Longitude-115.57553°
Altitude421.256 km
Speed7.66 km/s
True Right ascension10h 06m 38s
True Declination0° 00' 00"
Sunlit
Object was in full shadow at TLE epoch
Visualization TLE readout
Latitude-31.43341°
Longitude67.16706°
Altitude438.871 km
Speed7.644 km/s
Apparent Right ascension01h 49m 38s
Apparent Declination-75° 32' 39"
Sunlit
Object is in daylight
Visualization observer readout
Local Sidereal Time21:03:01
Azimuth163.367° S
Elevation-34.13°
Doppler factor1
Orbital elements
Apogee altitude424.784 km
Perigee altitude411.086 km
Semi-major axis6,796.072 km
Eccentricity0.0010078
Inclination85.0192°
RAAN151.6615°
Arg. of periapsis63.9714°
True anomaly296.15427°
Mean anomaly296.2579°
Eccentric anomaly296.20609°
Mean motion3.87397 °/min
BSTAR0.00059092
Orbital period92.93 mins
Loading maneuver chart data...

SHIELDS 1 Visibility forecast

Observer location: undefined°, undefined

Span
Click to sort rows by Start time (UTC) header in descending order
Start Az.
Max El. time (UTC)
Max El. Az.
Max El.
End time (UTC)
End Az.
5 mins2024-12-26 22:52:00.128Z332.012° NNW2024-12-26 22:55:00.128Z256.369° W26.165°2024-12-26 22:57:00.128Z212.419° SW
4 mins2024-12-27 10:52:00.128Z178.228° S2024-12-27 10:53:00.128Z160.459° S43.717°2024-12-27 10:56:00.128Z5.995° NNE
|